When you browse on this site, cookies collect data to enhance your experience and personalize the content and advertising you see.
Visit our Privacy Policy to learn more. By continuing to use the site, you agree to this use of cookies and data.
  • In Germany
  • List of Countries
  • For 7 days
  • Water Temperature
  • Satellite Maps
  • Weather Map
  • Weather Widgets
  • user-avatar
    Login

    Hourly Weather Tirana

    Today, 21 July, Sunday

    Time Temperature Precipitation Wind Pressure Humidity
    00:00 +24°C° 0 mm 1 mps 756 mmHg 63%
    01:00 +23°C° 0 mm 1 mps 756 mmHg 64%
    02:00 +23°C° 0 mm 1 mps 756 mmHg 64%
    03:00 +23°C° 0 mm 1 mps 756 mmHg 65%
    04:00 +22°C° 0 mm 1 mps 756 mmHg 66%
    05:00 +24°C° 0 mm 1 mps 756 mmHg 60%
    06:00 +26°C° 0 mm 1 mps 756 mmHg 55%
    07:00 +28°C° 0 mm 1 mps 756 mmHg 49%
    08:00 +30°C° 0 mm 1 mps 756 mmHg 44%
    09:00 +32°C° 0 mm 2 mps 756 mmHg 39%
    10:00 +34°C° 0 mm 2 mps 756 mmHg 35%
    11:00 +35°C° 0 mm 3 mps 756 mmHg 34%
    12:00 +35°C° 0 mm 4 mps 756 mmHg 33%
    13:00 +36°C° 0 mm 5 mps 756 mmHg 33%
    14:00 +35°C° 0 mm 5 mps 756 mmHg 34%
    15:00 +35°C° 0 mm 5 mps 756 mmHg 36%
    16:00 +34°C° 0 mm 5 mps 756 mmHg 38%
    17:00 +32°C° 0 mm 4 mps 755 mmHg 44%
    18:00 +29°C° 0 mm 3 mps 755 mmHg 51%
    19:00 +27°C° 0 mm 3 mps 755 mmHg 57%
    20:00 +26°C° 0 mm 2 mps 756 mmHg 59%
    21:00 +25°C° 0 mm 2 mps 756 mmHg 60%
    22:00 +25°C° 0 mm 1 mps 756 mmHg 62%
    23:00 +25°C° 0 mm 1 mps 756 mmHg 62%

    Tomorrow, 22 July, Monday

    Time Temperature Precipitation Wind Pressure Humidity
    00:00 +24°C° 0 mm 1 mps 756 mmHg 63%
    01:00 +24°C° 0 mm 1 mps 756 mmHg 63%
    02:00 +24°C° 0 mm 1 mps 756 mmHg 63%
    03:00 +24°C° 0 mm 1 mps 756 mmHg 64%
    04:00 +24°C° 0 mm 1 mps 755 mmHg 64%
    05:00 +25°C° 0 mm 1 mps 756 mmHg 59%
    06:00 +27°C° 0 mm 1 mps 756 mmHg 54%
    07:00 +29°C° 0 mm 1 mps 756 mmHg 50%
    08:00 +31°C° 0 mm 1 mps 756 mmHg 44%
    09:00 +33°C° 0 mm 1 mps 756 mmHg 39%
    10:00 +36°C° 0 mm 2 mps 756 mmHg 34%
    11:00 +37°C° 0 mm 3 mps 755 mmHg 32%
    12:00 +38°C° 0 mm 4 mps 755 mmHg 30%
    13:00 +40°C° 0 mm 5 mps 755 mmHg 27%
    14:00 +39°C° 0 mm 5 mps 755 mmHg 31%
    15:00 +36°C° 0 mm 6 mps 755 mmHg 34%
    16:00 +35°C° 0 mm 6 mps 754 mmHg 37%
    17:00 +33°C° 0 mm 5 mps 754 mmHg 42%
    18:00 +32°C° 0 mm 5 mps 754 mmHg 48%
    19:00 +29°C° 0 mm 4 mps 754 mmHg 53%
    20:00 +28°C° 0 mm 3 mps 755 mmHg 54%
    21:00 +28°C° 0 mm 3 mps 755 mmHg 55%
    22:00 +27°C° 0 mm 2 mps 755 mmHg 57%
    23:00 +27°C° 0 mm 2 mps 755 mmHg 57%

    Day after tomorrow, 23 July, Tuesday

    Time Temperature Precipitation Wind Pressure Humidity
    00:00 +26°C° 0 mm 2 mps 754 mmHg 57%
    01:00 +26°C° 0 mm 2 mps 754 mmHg 57%
    02:00 +26°C° 0 mm 2 mps 754 mmHg 57%
    03:00 +25°C° 0 mm 2 mps 754 mmHg 56%
    04:00 +25°C° 0 mm 2 mps 754 mmHg 56%
    05:00 +27°C° 0 mm 2 mps 754 mmHg 53%
    06:00 +28°C° 0 mm 3 mps 754 mmHg 50%
    07:00 +30°C° 0 mm 3 mps 754 mmHg 47%
    08:00 +33°C° 0 mm 3 mps 754 mmHg 42%
    09:00 +35°C° 0 mm 4 mps 754 mmHg 38%
    10:00 +37°C° 0 mm 4 mps 754 mmHg 33%
    11:00 +37°C° 0 mm 5 mps 753 mmHg 30%
    12:00 +39°C° 0 mm 6 mps 753 mmHg 28%
    13:00 +40°C° 0 mm 7 mps 753 mmHg 25%
    14:00 +39°C° 0 mm 8 mps 753 mmHg 26%
    15:00 +39°C° 0 mm 8 mps 752 mmHg 26%
    16:00 +38°C° 0 mm 9 mps 752 mmHg 26%
    17:00 +35°C° 0 mm 8 mps 752 mmHg 33%
    18:00 +33°C° 0 mm 8 mps 752 mmHg 39%
    19:00 +29°C° 0 mm 7 mps 752 mmHg 46%
    20:00 +28°C° 0 mm 6 mps 753 mmHg 48%
    21:00 +27°C° 0 mm 5 mps 753 mmHg 51%
    22:00 +26°C° 0 mm 3 mps 753 mmHg 54%
    23:00 +26°C° 0 mm 3 mps 753 mmHg 53%

    24 July, Wednesday

    Time Temperature Precipitation Wind Pressure Humidity
    00:00 +26°C° 0 mm 2 mps 753 mmHg 53%
    01:00 +25°C° 0 mm 2 mps 753 mmHg 52%
    02:00 +25°C° 0 mm 2 mps 752 mmHg 53%
    03:00 +25°C° 0 mm 3 mps 752 mmHg 54%
    04:00 +24°C° 0 mm 3 mps 752 mmHg 55%
    05:00 +26°C° 0 mm 3 mps 752 mmHg 52%
    06:00 +28°C° 0 mm 3 mps 752 mmHg 48%
    07:00 +29°C° 0 mm 3 mps 752 mmHg 45%
    08:00 +31°C° 0 mm 3 mps 753 mmHg 40%
    09:00 +34°C° 0 mm 3 mps 753 mmHg 36%
    10:00 +35°C° 0 mm 3 mps 753 mmHg 31%
    11:00 +36°C° 0 mm 4 mps 753 mmHg 29%
    12:00 +37°C° 0 mm 4 mps 753 mmHg 28%
    13:00 +39°C° 0 mm 5 mps 753 mmHg 27%
    14:00 +38°C° 0 mm 6 mps 752 mmHg 29%
    15:00 +36°C° 0 mm 7 mps 752 mmHg 31%
    16:00 +37°C° 0 mm 8 mps 752 mmHg 34%
    17:00 +34°C° 0 mm 7 mps 752 mmHg 40%
    18:00 +32°C° 0 mm 6 mps 752 mmHg 46%
    19:00 +29°C° 0 mm 6 mps 752 mmHg 52%
    20:00 +28°C° 0 mm 5 mps 753 mmHg 54%
    21:00 +27°C° 0 mm 4 mps 753 mmHg 56%
    22:00 +26°C° 0 mm 3 mps 753 mmHg 57%
    23:00 +26°C° 0 mm 3 mps 753 mmHg 55%

    25 July, Thursday

    Time Temperature Precipitation Wind Pressure Humidity
    00:00 +26°C° 0 mm 2 mps 753 mmHg 53%
    01:00 +25°C° 0 mm 2 mps 753 mmHg 51%
    02:00 +25°C° 0 mm 2 mps 753 mmHg 51%
    03:00 +25°C° 0 mm 2 mps 753 mmHg 51%
    04:00 +24°C° 0 mm 2 mps 753 mmHg 51%
    05:00 +26°C° 0 mm 2 mps 753 mmHg 48%
    06:00 +27°C° 0 mm 2 mps 754 mmHg 45%
    07:00 +29°C° 0 mm 2 mps 754 mmHg 41%
    08:00 +31°C° 0 mm 2 mps 754 mmHg 38%
    09:00 +34°C° 0 mm 2 mps 754 mmHg 34%
    10:00 +36°C° 0 mm 2 mps 754 mmHg 30%
    11:00 +36°C° 0 mm 3 mps 754 mmHg 30%
    12:00 +36°C° 0 mm 3 mps 753 mmHg 31%
    13:00 +36°C° 0 mm 4 mps 753 mmHg 31%
    14:00 +36°C° 0 mm 4 mps 753 mmHg 33%
    15:00 +35°C° 0 mm 4 mps 753 mmHg 34%
    16:00 +35°C° 0 mm 4 mps 753 mmHg 35%
    17:00 +33°C° 0 mm 3 mps 753 mmHg 43%
    18:00 +29°C° 0 mm 3 mps 753 mmHg 51%
    19:00 +27°C° 0 mm 2 mps 753 mmHg 58%
    20:00 +27°C° 0 mm 1 mps 753 mmHg 59%
    21:00 +26°C° 0 mm 1 mps 753 mmHg 61%
    22:00 +26°C° 0 mm 1 mps 753 mmHg 62%
    23:00 +25°C° 0 mm 1 mps 753 mmHg 63%

    26 July, Friday

    Time Temperature Precipitation Wind Pressure Humidity
    00:00 +25°C° 0 mm 1 mps 753 mmHg 63%
    01:00 +25°C° 0 mm 1 mps 753 mmHg 63%
    02:00 +25°C° 0 mm 1 mps 753 mmHg 63%
    03:00 +22°C° 0 mm 0 mps 753 mmHg 63%
    04:00 +22°C° 0 mm 0 mps 753 mmHg 63%
    05:00 +24°C° 0 mm 0 mps 753 mmHg 57%
    06:00 +26°C° 0 mm 0 mps 753 mmHg 52%
    07:00 +27°C° 0 mm 0 mps 753 mmHg 46%
    08:00 +31°C° 0 mm 1 mps 753 mmHg 42%
    09:00 +33°C° 0 mm 1 mps 753 mmHg 37%
    10:00 +36°C° 0 mm 2 mps 753 mmHg 33%
    11:00 +36°C° 0 mm 3 mps 752 mmHg 33%
    12:00 +36°C° 0 mm 4 mps 752 mmHg 34%
    13:00 +37°C° 0 mm 4 mps 752 mmHg 34%
    14:00 +36°C° 0 mm 4 mps 751 mmHg 35%
    15:00 +35°C° 0 mm 4 mps 751 mmHg 36%
    16:00 +35°C° 0 mm 4 mps 751 mmHg 37%
    17:00 +33°C° 0 mm 3 mps 751 mmHg 44%
    18:00 +30°C° 0 mm 2 mps 751 mmHg 51%
    19:00 +28°C° 0 mm 2 mps 751 mmHg 58%
    20:00 +27°C° 0 mm 1 mps 751 mmHg 60%
    21:00 +26°C° 0 mm 1 mps 752 mmHg 61%
    22:00 +26°C° 0 mm 1 mps 752 mmHg 63%
    23:00 +25°C° 0 mm 1 mps 752 mmHg 64%
    Show more